• In Russia
  • List of Countries
  • For 7 days
  • Water Temperature
  • Satellite Maps
  • Weather Map
  • Weather Widgets
  • user-avatar
    Login

    Hourly Weather Burdukovo

    Today, 14 November, Wednesday

    Time Temperature Precipitation Wind Pressure Humidity
    00:00 -14°C° 0 mm 1 mps 726 mmHg 86%
    01:00 -14°C° 0 mm 1 mps 726 mmHg 88%
    02:00 -14°C° 0 mm 1 mps 726 mmHg 87%
    03:00 -14°C° 0 mm 1 mps 726 mmHg 86%
    04:00 -14°C° 0 mm 1 mps 726 mmHg 85%
    05:00 -14°C° 0 mm 1 mps 726 mmHg 85%
    06:00 -14°C° 0 mm 1 mps 727 mmHg 84%
    07:00 -15°C° 0 mm 1 mps 726 mmHg 84%
    08:00 -13°C° 0 mm 1 mps 727 mmHg 74%
    09:00 -13°C° 0 mm 2 mps 727 mmHg 65%
    10:00 -12°C° 0 mm 2 mps 727 mmHg 55%
    11:00 -10°C° 0 mm 2 mps 727 mmHg 53%
    12:00 -10°C° 0 mm 3 mps 727 mmHg 50%
    13:00 -10°C° 0 mm 3 mps 727 mmHg 48%
    14:00 -10°C° 0 mm 2 mps 727 mmHg 53%
    15:00 -10°C° 0 mm 2 mps 727 mmHg 58%
    16:00 -10°C° 0 mm 1 mps 727 mmHg 63%
    17:00 -10°C° 0 mm 1 mps 728 mmHg 66%
    18:00 -13°C° 0 mm 2 mps 728 mmHg 69%
    19:00 -13°C° 0 mm 2 mps 728 mmHg 72%
    20:00 -13°C° 0 mm 2 mps 728 mmHg 71%
    21:00 -13°C° 0 mm 2 mps 728 mmHg 71%
    22:00 -13°C° 0 mm 2 mps 728 mmHg 71%
    23:00 -13°C° 0 mm 2 mps 728 mmHg 73%

    Tomorrow, 15 November, Thursday

    Time Temperature Precipitation Wind Pressure Humidity
    00:00 -13°C° 0 mm 2 mps 728 mmHg 75%
    01:00 -13°C° 0 mm 2 mps 728 mmHg 76%
    02:00 -13°C° 0.1 mm 2 mps 728 mmHg 77%
    03:00 -13°C° 0.1 mm 2 mps 728 mmHg 77%
    04:00 -13°C° 0.1 mm 2 mps 727 mmHg 77%
    05:00 -13°C° 0 mm 2 mps 727 mmHg 77%
    06:00 -14°C° 0 mm 2 mps 727 mmHg 77%
    07:00 -14°C° 0 mm 2 mps 727 mmHg 76%
    08:00 -12°C° 0 mm 2 mps 727 mmHg 70%
    09:00 -10°C° 0 mm 2 mps 727 mmHg 64%
    10:00 -9°C° 0 mm 2 mps 726 mmHg 58%
    11:00 -8°C° 0 mm 2 mps 726 mmHg 55%
    12:00 -8°C° 0 mm 3 mps 725 mmHg 52%
    13:00 -7°C° 0 mm 3 mps 725 mmHg 50%
    14:00 -7°C° 0 mm 2 mps 725 mmHg 53%
    15:00 -8°C° 0 mm 2 mps 724 mmHg 57%
    16:00 -9°C° 0 mm 2 mps 724 mmHg 61%
    17:00 -10°C° 0 mm 2 mps 724 mmHg 61%
    18:00 -10°C° 0 mm 2 mps 723 mmHg 62%
    19:00 -12°C° 0 mm 2 mps 723 mmHg 63%
    20:00 -12°C° 0 mm 2 mps 723 mmHg 63%
    21:00 -12°C° 0 mm 2 mps 722 mmHg 63%
    22:00 -10°C° 0 mm 1 mps 722 mmHg 63%
    23:00 -10°C° 0 mm 1 mps 722 mmHg 63%

    Day after tomorrow, 16 November, Friday

    Time Temperature Precipitation Wind Pressure Humidity
    00:00 -10°C° 0 mm 1 mps 722 mmHg 63%
    01:00 -10°C° 0 mm 1 mps 721 mmHg 62%
    02:00 -10°C° 0 mm 1 mps 721 mmHg 63%
    03:00 -9°C° 0 mm 1 mps 721 mmHg 64%
    04:00 -10°C° 0 mm 2 mps 721 mmHg 65%
    05:00 -10°C° 0.1 mm 2 mps 721 mmHg 68%
    06:00 -10°C° 0.1 mm 2 mps 721 mmHg 72%
    07:00 -10°C° 0.1 mm 2 mps 721 mmHg 75%
    08:00 -9°C° 0.1 mm 2 mps 721 mmHg 72%
    09:00 -7°C° 0.1 mm 2 mps 721 mmHg 68%
    10:00 -6°C° 0.1 mm 2 mps 721 mmHg 65%
    11:00 -6°C° 0 mm 3 mps 720 mmHg 62%
    12:00 -5°C° 0 mm 3 mps 720 mmHg 59%
    13:00 -4°C° 0 mm 3 mps 719 mmHg 56%
    14:00 -5°C° 0 mm 3 mps 719 mmHg 61%
    15:00 -6°C° 0 mm 2 mps 719 mmHg 65%
    16:00 -7°C° 0 mm 2 mps 719 mmHg 70%
    17:00 -7°C° 0 mm 2 mps 719 mmHg 71%
    18:00 -7°C° 0 mm 2 mps 719 mmHg 71%
    19:00 -6°C° 0 mm 1 mps 720 mmHg 72%
    20:00 -7°C° 0 mm 1 mps 720 mmHg 75%
    21:00 -7°C° 0 mm 1 mps 720 mmHg 78%
    22:00 -8°C° 0 mm 1 mps 720 mmHg 80%
    23:00 -8°C° 0.2 mm 1 mps 720 mmHg 83%

    17 November, Saturday

    Time Temperature Precipitation Wind Pressure Humidity
    00:00 -7°C° 0.2 mm 1 mps 720 mmHg 86%
    01:00 -7°C° 0.2 mm 1 mps 721 mmHg 89%
    02:00 -9°C° 0.4 mm 3 mps 721 mmHg 87%
    03:00 -10°C° 0.4 mm 4 mps 722 mmHg 84%
    04:00 -11°C° 0.4 mm 6 mps 723 mmHg 81%
    05:00 -14°C° 0 mm 6 mps 723 mmHg 77%
    06:00 -15°C° 0 mm 6 mps 724 mmHg 72%
    07:00 -16°C° 0 mm 6 mps 725 mmHg 67%
    08:00 -16°C° 0 mm 6 mps 725 mmHg 65%
    09:00 -16°C° 0 mm 6 mps 726 mmHg 64%
    10:00 -16°C° 0 mm 6 mps 726 mmHg 62%
    11:00 -16°C° 0 mm 6 mps 726 mmHg 61%
    12:00 -16°C° 0 mm 6 mps 726 mmHg 60%
    13:00 -16°C° 0 mm 6 mps 726 mmHg 60%
    14:00 -17°C° 0 mm 5 mps 726 mmHg 64%
    15:00 -17°C° 0 mm 4 mps 726 mmHg 68%
    16:00 -16°C° 0 mm 3 mps 726 mmHg 72%
    17:00 -16°C° 0 mm 3 mps 726 mmHg 74%
    18:00 -17°C° 0 mm 3 mps 726 mmHg 77%
    19:00 -17°C° 0 mm 3 mps 726 mmHg 79%
    20:00 -17°C° 0 mm 3 mps 726 mmHg 80%
    21:00 -17°C° 0 mm 3 mps 726 mmHg 80%
    22:00 -16°C° 0 mm 2 mps 726 mmHg 81%
    23:00 -17°C° 0 mm 2 mps 726 mmHg 84%

    18 November, Sunday

    Time Temperature Precipitation Wind Pressure Humidity
    00:00 -17°C° 0 mm 2 mps 726 mmHg 86%
    01:00 -16°C° 0 mm 1 mps 725 mmHg 89%
    02:00 -16°C° 0 mm 1 mps 725 mmHg 89%
    03:00 -16°C° 0 mm 1 mps 725 mmHg 90%
    04:00 -16°C° 0 mm 1 mps 724 mmHg 91%
    05:00 -16°C° 0 mm 1 mps 724 mmHg 91%
    06:00 -16°C° 0 mm 1 mps 724 mmHg 92%
    07:00 -16°C° 0 mm 1 mps 724 mmHg 92%
    08:00 -17°C° 0 mm 2 mps 724 mmHg 86%
    09:00 -16°C° 0 mm 2 mps 723 mmHg 79%
    10:00 -15°C° 0 mm 3 mps 723 mmHg 73%
    11:00 -15°C° 0.1 mm 3 mps 723 mmHg 70%
    12:00 -14°C° 0.1 mm 3 mps 722 mmHg 67%
    13:00 -15°C° 0.1 mm 4 mps 722 mmHg 64%
    14:00 -14°C° 0.1 mm 3 mps 721 mmHg 70%
    15:00 -14°C° 0.1 mm 3 mps 721 mmHg 75%
    16:00 -14°C° 0.1 mm 2 mps 721 mmHg 80%
    17:00 -14°C° 0.1 mm 2 mps 721 mmHg 81%
    18:00 -15°C° 0.1 mm 3 mps 721 mmHg 83%
    19:00 -16°C° 0.1 mm 4 mps 721 mmHg 84%
    20:00 -16°C° 0.1 mm 4 mps 721 mmHg 83%
    21:00 -16°C° 0.1 mm 4 mps 721 mmHg 83%
    22:00 -17°C° 0.1 mm 4 mps 721 mmHg 83%
    23:00 -16°C° 0.1 mm 3 mps 721 mmHg 85%

    19 November, Monday

    Time Temperature Precipitation Wind Pressure Humidity
    00:00 -16°C° 0.1 mm 3 mps 721 mmHg 87%
    01:00 -15°C° 0.1 mm 2 mps 721 mmHg 88%
    02:00 -16°C° 0.1 mm 3 mps 721 mmHg 87%
    03:00 -16°C° 0.1 mm 3 mps 721 mmHg 85%
    04:00 -17°C° 0.1 mm 4 mps 721 mmHg 83%
    05:00 -17°C° 0 mm 3 mps 722 mmHg 84%
    06:00 -18°C° 0 mm 3 mps 722 mmHg 85%
    07:00 -19°C° 0 mm 3 mps 722 mmHg 87%
    08:00 -18°C° 0 mm 3 mps 722 mmHg 81%
    09:00 -17°C° 0 mm 3 mps 723 mmHg 76%
    10:00 -17°C° 0 mm 4 mps 723 mmHg 71%
    11:00 -16°C° 0 mm 4 mps 723 mmHg 70%
    12:00 -16°C° 0 mm 4 mps 723 mmHg 68%
    13:00 -15°C° 0 mm 4 mps 723 mmHg 67%
    14:00 -15°C° 0 mm 3 mps 723 mmHg 73%
    15:00 -15°C° 0 mm 3 mps 723 mmHg 78%
    16:00 -15°C° 0 mm 2 mps 723 mmHg 84%
    17:00 -16°C° 0 mm 2 mps 724 mmHg 86%
    18:00 -16°C° 0 mm 2 mps 724 mmHg 88%
    19:00 -14°C° 0 mm 1 mps 724 mmHg 90%
    20:00 -14°C° 0 mm 1 mps 724 mmHg 91%
    21:00 -15°C° 0 mm 1 mps 724 mmHg 91%
    22:00 -15°C° 0 mm 1 mps 724 mmHg 91%
    23:00 -15°C° 0 mm 1 mps 724 mmHg 91%
    Show more